• Join FlightAware (Why Join?)
  • Login
  • US Flag 
10:50AM EDT


 

Airport Tracker/Info


-or-


 

Live Flight TrackerFlight Track Log ✈ AAY863 ✈ 16-Feb-2014 ✈ KCID - KPIE

Flight Track Log - Related Links

Times and Time Zones

All times are in EST time to prevent confusion due to time zone crossing. See the AAY863 flight status page for this flight to view local times or setup timezone preferences in your user account.

Time Position Orientation Groundspeed Altitude Reporting Facility
EST Latitude Longitude Course Direction KTS MPH feet Rate Location/Type
06:28PM 41.8233 -91.6603 137° Southeast 276 318 4,300  Level Chicago Center
06:29PM 41.7503 -91.6475 173° South 265 305 7,100 2,580 Climbing Chicago Center
06:30PM 41.6711 -91.6375 175° South 284 327 9,700 1,980 Climbing Chicago Center
06:31PM 41.5858 -91.6231 173° South 306 352 11,300 1,680 Climbing Chicago Center
06:32PM 41.4833 -91.5753 161° South 379 436 13,200 1,860 Climbing Chicago Center
06:33PM 41.2324 -91.2771 137° Southeast  Level FlightAware Approximate
06:33PM 41.4039 -91.4786 138° Southeast 404 465 15,200  Level Chicago Center
06:34PM 41.2972 -91.3489 138° Southeast 430 495 17,400 1,680 Climbing Chicago Center
06:35PM 41.2022 -91.2358 138° Southeast 448 516 18,700 1,500 Climbing Chicago Center
06:36PM 41.1061 -91.1231 139° Southeast 461 531 20,500 1,620 Climbing Chicago Center
06:37PM 41.0069 -91.0075 139° Southeast 472 543 22,100 1,380 Climbing Chicago Center
06:38PM 40.9069 -90.8911 139° Southeast 479 551 23,400 1,200 Climbing Chicago Center
06:39PM 40.8031 -90.7708 139° Southeast 496 571 24,600 1,320 Climbing Chicago Center
06:40PM 40.6764 -90.6244 139° Southeast 507 583 26,200 1,500 Climbing Chicago Center
06:41PM 40.5689 -90.5019 139° Southeast 513 590 27,700 1,200 Climbing Chicago Center
06:42PM 40.4631 -90.3797 139° Southeast 512 589 28,700 1,020 Climbing Chicago Center
06:43PM 40.3567 -90.2594 139° Southeast 512 589 29,900 960 Climbing Chicago Center
06:44PM 40.2486 -90.1358 139° Southeast 517 595 30,700 840 Climbing Chicago Center
06:45PM 40.1175 -89.9886 139° Southeast 521 600 31,700 780 Climbing Chicago Center
06:46PM 40.0089 -89.8661 139° Southeast 520 598 32,400 480 Climbing Chicago Center
06:47PM 39.8997 -89.7431 139° Southeast 522 601 32,800 240 Climbing Chicago Center
06:48PM 39.7908 -89.6242 140° Southeast 514 592 33,000 60 Climbing Chicago Center
06:49PM 39.6778 -89.5083 142° Southeast 519 597 33,000  Level Chicago Center
06:51PM 39.5428 -89.3700 142° Southeast 517 595 33,000  Level Chicago Center
06:52PM 39.4292 -89.2547 142° Southeast 520 598 33,000  Level Chicago Center
06:53PM 39.3169 -89.1397 142° Southeast 516 594 33,000  Level Chicago Center
06:53PM 39.2419 -89.0633 142° Southeast 517 595 33,000  Level Indianapolis Center
06:54PM 39.1264 -88.9494 143° Southeast 517 595 33,000  Level Indianapolis Center
06:55PM 39.0136 -88.8344 142° Southeast 517 595 33,000  Level Indianapolis Center
06:56PM 38.8789 -88.6981 142° Southeast 515 593 33,000  Level Indianapolis Center
06:57PM 38.7647 -88.5853 142° Southeast 515 593 33,000  Level Indianapolis Center
06:58PM 38.6528 -88.4714 142° Southeast 515 593 33,000  Level Indianapolis Center
06:59PM 38.5386 -88.3594 143° Southeast 515 593 33,000  Level Indianapolis Center
07:01PM 38.4258 -88.2481 142° Southeast 515 593 33,000  Level Indianapolis Center
07:02PM 38.3133 -88.1369 142° Southeast 515 593 33,000  Level Indianapolis Center
07:03PM 38.2011 -88.0258 142° Southeast 515 593 33,000  Level Indianapolis Center
07:04PM 38.0886 -87.9167 143° Southeast 513 590 33,000  Level Indianapolis Center
07:05PM 37.9531 -87.7842 142° Southeast 513 590 33,000  Level Indianapolis Center
07:06PM 37.8300 -87.6997 152° Southeast 508 585 33,000  Level Indianapolis Center
07:07PM 37.7119 -87.6267 154° Southeast 505 581 33,000  Level Indianapolis Center
07:08PM 37.5856 -87.5486 154° Southeast 504 580 33,000  Level Indianapolis Center
07:09PM 37.4594 -87.4722 154° Southeast 503 579 33,000  Level Indianapolis Center
07:10PM 37.3333 -87.3961 154° Southeast 500 575 33,000  Level Indianapolis Center
07:11PM 37.1867 -87.3067 154° Southeast 499 574 33,000  Level Indianapolis Center
07:12PM 37.1019 -87.2556 154° Southeast 500 575 33,000  Level Memphis Center
07:13PM 36.9747 -87.1797 155° Southeast 501 577 33,000  Level Memphis Center
07:14PM 36.8281 -87.0906 154° Southeast 499 574 33,000  Level Memphis Center
07:15PM 36.7011 -87.0156 155° Southeast 498 573 33,000  Level Memphis Center
07:16PM 36.5731 -86.9397 155° Southeast 501 577 33,000  Level Memphis Center
07:17PM 36.4467 -86.8664 155° Southeast 497 572 33,000  Level Memphis Center
07:18PM 36.3319 -86.8128 159° South 492 566 33,000  Level Memphis Center
07:19PM 36.1794 -86.7439 160° South 491 565 33,000  Level Memphis Center
07:20PM 36.0508 -86.6861 160° South 489 563 33,000  Level Memphis Center
07:21PM 35.9219 -86.6275 160° South 487 560 33,000  Level Memphis Center
07:22PM 35.7933 -86.5708 160° South 487 560 33,000  Level Memphis Center
07:23PM 35.6650 -86.5125 160° South 486 559 33,000  Level Memphis Center
07:24PM 35.5369 -86.4550 160° South 485 558 33,000  Level Memphis Center
07:25PM 35.4094 -86.3978 160° South 483 556 33,000  Level Memphis Center
07:26PM 35.3022 -86.3519 161° South 481 554 33,000  Level Atlanta Center
07:27PM 35.1864 -86.3031 161° South 481 554 33,000  Level Atlanta Center
07:28PM 35.0622 -86.2439 159° South 486 559 33,000  Level Atlanta Center
07:29PM 34.9317 -86.1872 160° South 486 559 33,000  Level Atlanta Center
07:30PM 34.8033 -86.1308 160° South 492 566 33,000  Level Atlanta Center
07:31PM 34.6728 -86.0719 160° South 492 566 33,000  Level Atlanta Center
07:32PM 34.5403 -86.0158 161° South 498 573 33,000  Level Atlanta Center
07:33PM 34.4136 -85.9625 161° South 498 573 33,000  Level Atlanta Center
07:34PM 34.2853 -85.9042 159° South 498 573 33,000  Level Atlanta Center
07:35PM 34.1544 -85.8486 161° South 498 573 33,000  Level Atlanta Center
07:36PM 34.0133 -85.7931 162° South 498 573 33,000  Level Atlanta Center
07:37PM 33.8847 -85.7378 160° South 498 573 33,000  Level Atlanta Center
07:38PM 33.7561 -85.6828 160° South 498 573 33,000  Level Atlanta Center
07:39PM 33.6233 -85.6281 161° South 498 573 33,000  Level Atlanta Center
07:40PM 33.4944 -85.5733 161° South 498 573 33,000  Level Atlanta Center
07:41PM 33.3658 -85.5189 161° South 498 573 33,000  Level Atlanta Center
07:42PM 33.2350 -85.4669 162° South 503 579 33,000  Level Atlanta Center
07:43PM 33.1061 -85.4103 160° South 497 572 33,000  Level Atlanta Center
07:44PM 32.9878 -85.3539 158° South 502 578 33,000  Level Atlanta Center
07:45PM 32.8611 -85.3025 161° South 502 578 33,000  Level Atlanta Center
07:46PM 32.7322 -85.2514 162° South 502 578 33,000  Level Atlanta Center
07:47PM 32.6033 -85.1953 160° South 492 566 33,000  Level Atlanta Center
07:48PM 32.4744 -85.1419 161° South 492 566 33,000  Level Atlanta Center
07:49PM 32.3475 -85.0886 160° South 492 566 33,000  Level Atlanta Center
07:50PM 32.1178 -84.9972 161° South 489 563 33,000  Level Jacksonville Center
07:51PM 31.9892 -84.9453 161° South 489 563 33,000  Level Jacksonville Center
07:52PM 31.8625 -84.8958 162° South 489 563 33,000  Level Jacksonville Center
07:53PM 31.7194 -84.8367 161° South 484 557 33,000  Level Jacksonville Center
07:54PM 31.5928 -84.7853 161° South 484 557 33,000  Level Jacksonville Center
07:55PM 31.4664 -84.7339 161° South 479 551 33,000  Level Jacksonville Center
07:56PM 31.3419 -84.6706 157° South 484 557 33,000  Level Jacksonville Center
07:57PM 31.2194 -84.6075 156° South 489 563 33,000  Level Jacksonville Center
07:58PM 31.0931 -84.5422 156° South 495 570 33,000  Level Jacksonville Center
07:59PM 30.9667 -84.4772 156° South 495 570 33,000  Level Jacksonville Center
08:00PM 30.8442 -84.4144 156° South 495 570 33,000  Level Jacksonville Center
08:01PM 30.7197 -84.3497 156° South 495 570 33,000  Level Jacksonville Center
08:02PM 30.5950 -84.2850 156° South 495 570 33,000  Level Jacksonville Center
08:03PM 30.4850 -84.2281 156° South 495 570 33,000  Level Jacksonville Center
08:04PM 30.3519 -84.1611 157° South 484 557 33,000  Level Jacksonville Center
08:05PM 30.2378 -84.0972 154° Southeast 489 563 33,000  Level Jacksonville Center
08:06PM 30.1175 -84.0261 153° Southeast 489 563 33,000  Level Jacksonville Center
08:07PM 29.9947 -83.9550 153° Southeast 489 563 33,000  Level Jacksonville Center
08:08PM 29.8703 -83.8842 154° Southeast 489 563 33,000  Level Jacksonville Center
08:09PM 29.7497 -83.8111 152° Southeast 489 563 33,000  Level Jacksonville Center
08:10PM 29.6228 -83.7406 154° Southeast 489 563 33,000 -60 Level Jacksonville Center
08:11PM 29.5022 -83.6706 153° Southeast 489 563 32,900 -900 Descending Jacksonville Center
08:12PM 29.3772 -83.5981 153° Southeast 489 563 31,300 -2,460 Descending Jacksonville Center
08:13PM 29.2567 -83.5306 154° Southeast 489 563 28,000 -2,940 Descending Jacksonville Center
08:14PM 29.1381 -83.4561 151° Southeast 489 563 25,500 -2,100 Descending Jacksonville Center
08:15PM 29.0172 -83.3794 151° Southeast 489 563 23,900 -1,140 Descending Jacksonville Center
08:16PM 28.9028 -83.3075 151° Southeast 489 563 23,300 -1,740 Descending Jacksonville Center
08:17PM 28.7881 -83.2336 151° Southeast 482 555 20,500 -2,580 Descending Jacksonville Center
08:20PM 28.5167 -83.0667 152° Southeast 443 510 14,700 -2,160 Descending Tampa TRACON
08:21PM 28.4167 -83.0000 150° Southeast 416 479 13,200 -1,440 Descending Tampa TRACON
08:22PM 28.3167 -82.9500 156° South 379 436 11,900 -1,260 Descending Tampa TRACON
08:23PM 28.2167 -82.8833 150° Southeast 346 398 10,600 -1,200 Descending Tampa TRACON
08:24PM 28.1500 -82.8500 156° South 309 356 9,500 -1,380 Descending Tampa TRACON
08:25PM 28.0667 -82.8000 152° Southeast 297 342 7,900 -1,800 Descending Tampa TRACON
08:26PM 28.0000 -82.7833 168° South 282 325 6,100 -1,980 Descending Tampa TRACON
08:27PM 27.9167 -82.7667 170° South 253 291 4,000 -1,800 Descending Tampa TRACON
08:28PM 27.8667 -82.7500 164° South 224 258 2,600 -1,260 Descending Tampa TRACON
08:29PM 27.8167 -82.7167 149° Southeast 189 217 1,700 -600 Descending Tampa TRACON
08:30PM 27.8333 -82.6833 61° Northeast 164 189 1,400 -600 Descending Tampa TRACON
08:31PM 27.8833 -82.6833 360° North 130 150 500 -900 Descending Tampa TRACON